Location: Unspecified
(0.0000°N, 0.0000°E)
Time: 02:36:07
(UTC+00:00)

Amateur Radio Satellites - All Passes

Search period start: 29 July 2014 02:06
Search period end: 30 July 2014 02:06
Location: Unspecified, 0.0000°N, 0.0000°E

Satellite Date Start Highest point End Downlink Frequencies (MHz)
Time Altitude Azimuth
AO-Echo 29 Jul 02:18:50 02:23:18 38° 282° (WNW) 02:27:42 ?
Oscar 16 29 Jul 02:31:14 02:32:43 11° 283° (WNW) 02:34:13 437.025 USB, Beacon 2401.1428
ITAMSAT 1 29 Jul 02:49:27 02:53:01 19° 283° (WNW) 02:56:36 435.822 SSB
TMSAT-1 29 Jul 03:03:49 03:09:00 60° 282° (WNW) 03:14:13 436.925 FM
AO-27 29 Jul 03:11:23 03:12:08 10° 283° (WNW) 03:12:53 436.795 MHz FM
AO-7 29 Jul 03:13:55 03:21:10 34° 106° (ESE) 03:28:23 29.400 - 29.500 MHz
Gurwin Techsat 1B 29 Jul 03:29:22 03:33:11 21° 283° (WNW) 03:37:03 435.225 FM
KITSAT 1 29 Jul 03:37:38 03:45:06 41° 110° (ESE) 03:52:31 435.175 FM
OPAL 29 Jul 03:49:17 03:54:17 78° 256° (WSW) 03:59:13 ?
JAS-1B 29 Jul 03:57:41 04:01:34 15° 289° (WNW) 04:05:12 435.800 - 435.900 CW/SSB
Uosat F 29 Jul 04:15:06 04:19:56 52° 283° (WNW) 04:24:48 435.120 FM
AO-7 29 Jul 05:06:32 05:13:35 32° 286° (WNW) 05:20:40 29.400 - 29.500 MHz
Hamsat 29 Jul 05:10:09 05:13:59 31° 102° (ESE) 05:17:51 145.90 MHz
Saudisat 1A 29 Jul 05:26:35 05:31:00 85° 112° (ESE) 05:35:24 436.775 MHz
KITSAT 1 29 Jul 05:33:49 05:40:09 25° 291° (WNW) 05:46:31 435.175 FM
JAS-2 29 Jul 05:54:00 05:59:15 75° 102° (ESE) 06:04:26 435.800 - 435.900 CW/SSB, 435.910 FM
STRAND 1 29 Jul 06:12:01 06:17:05 58° 77° (ENE) 06:22:07 ?
MaSat-1 29 Jul 06:28:39 06:31:12 15° 69° (ENE) 06:33:36 437.345 MHz
Hamsat 29 Jul 06:48:52 06:49:41 10° 282° (WNW) 06:50:31 145.90 MHz
SO-67 29 Jul 07:16:54 07:19:56 28° 281° (W) 07:22:58 435.3500 MHz FM
HO-68 29 Jul 07:52:44 07:58:33 28° 105° (ESE) 08:04:23 435.675 MHz FM
MaSat-1 29 Jul 08:04:34 08:08:21 25° 256° (WSW) 08:11:45 437.345 MHz
ISS 29 Jul 08:06:57 08:10:16 75° 55° (NE) 08:13:36 145.800 FM
UKube-1 29 Jul 09:00:02 09:04:22 89° 287° (WNW) 09:08:43 145.840 MHz, 145.915 MHz
HO-68 29 Jul 09:39:46 09:45:56 32° 285° (WNW) 09:52:08 435.675 MHz FM
Oscar 11 29 Jul 09:45:20 09:49:30 47° 282° (WNW) 09:53:42 145.825 FM, Beacon 2401.500 USB
FUNcube-1 29 Jul 10:06:34 10:10:50 89° 280° (W) 10:15:13 145.950 - 145.970 MHz USB
SO-50 29 Jul 10:09:12 10:13:34 60° 112° (ESE) 10:17:55 436.795 FM
PANSAT 29 Jul 10:12:39 10:15:05 16° 28° (NNE) 10:17:31 not established
RS-15 29 Jul 10:20:29 10:30:35 34° 112° (ESE) 10:40:13 29.354 - 29.394 USB, Beacon 29.352 USB
Sapphire 29 Jul 10:24:44 10:29:54 48° 71° (ENE) 10:35:05 437.095 MHz 1200 baud AX-25 AFSK
PCSat 29 Jul 10:57:56 11:03:16 63° 251° (WSW) 11:08:36 145.825 MHz
PANSAT 29 Jul 11:51:25 11:55:15 74° 210° (SSW) 11:59:06 not established
UOSAT-12 29 Jul 12:09:09 12:13:35 75° 112° (ESE) 12:18:06 437.025 FM, 437.400 FM
Sapphire 29 Jul 12:11:55 12:13:05 11° 250° (WSW) 12:14:16 437.095 MHz 1200 baud AX-25 AFSK
RS-15 29 Jul 12:31:55 12:42:32 43° 290° (WNW) 12:52:48 29.354 - 29.394 USB, Beacon 29.352 USB
Oscar 19 29 Jul 12:54:23 12:59:17 47° 78° (ENE) 13:04:09 437.125 CW, 437.150 USB
AO-Echo 29 Jul 13:09:25 13:13:48 28° 77° (ENE) 13:18:14 ?
Oscar 16 29 Jul 13:22:33 13:27:40 73° 258° (WSW) 13:32:46 437.025 USB, Beacon 2401.1428
PANSAT 29 Jul 13:34:06 13:35:29 12° 207° (SSW) 13:36:52 not established
ITAMSAT 1 29 Jul 13:43:46 13:48:59 71° 77° (ENE) 13:54:10 435.822 SSB
AO-27 29 Jul 14:03:03 14:08:15 67° 257° (WSW) 14:13:25 436.795 MHz FM
Uribyol 2 29 Jul 14:03:12 14:08:22 63° 257° (WSW) 14:13:30 436.500 FM
TMSAT-1 29 Jul 14:03:20 14:07:37 25° 77° (ENE) 14:11:51 436.925 FM
JAS-1B 29 Jul 14:10:18 14:17:43 68° 76° (ENE) 14:26:32 435.800 - 435.900 CW/SSB
Gurwin Techsat 1B 29 Jul 14:26:49 14:32:08 74° 78° (ENE) 14:37:25 435.225 FM
OPAL 29 Jul 14:44:11 14:47:16 16° 105° (ESE) 14:50:20 ?
AO-Echo 29 Jul 14:48:47 14:52:17 19° 258° (WSW) 14:55:50 ?
Uosat F 29 Jul 15:07:29 15:11:14 21° 77° (ENE) 15:14:59 435.120 FM
AO-7 29 Jul 15:39:26 15:47:34 56° 74° (ENE) 15:55:39 29.400 - 29.500 MHz
TMSAT-1 29 Jul 15:43:21 15:47:15 21° 257° (WSW) 15:51:09 436.925 FM
KITSAT 1 29 Jul 15:45:19 15:53:05 53° 70° (ENE) 16:00:50 435.175 FM
JAS-1B 29 Jul 16:04:52 16:08:21 14° 260° (W) 16:12:04 435.800 - 435.900 CW/SSB
OPAL 29 Jul 16:21:18 16:25:50 32° 284° (WNW) 16:30:26 ?
Uosat F 29 Jul 16:45:53 16:49:45 22° 257° (WSW) 16:53:37 435.120 FM
Hamsat 29 Jul 17:17:31 17:21:25 38° 79° (ENE) 17:25:17 145.90 MHz
JAS-2 29 Jul 17:24:18 17:31:40 48° 77° (ENE) 17:39:04 435.800 - 435.900 CW/SSB, 435.910 FM
Saudisat 1A 29 Jul 17:32:51 17:37:09 60° 248° (WSW) 17:41:28 436.775 MHz
AO-7 29 Jul 17:34:33 17:39:56 19° 253° (WSW) 17:45:20 29.400 - 29.500 MHz
KITSAT 1 29 Jul 17:42:54 17:48:10 19° 249° (WSW) 17:53:28 435.175 FM
Oscar 10/S400 29 Jul 18:39:03 19:00:54 64° 334° (NNW) 19:26:19 145.825 - 145.975 CW/USB, Beacon 145.810 USB
STRAND 1 29 Jul 18:44:50 18:49:47 55° 283° (WNW) 18:54:46 ?
SO-67 29 Jul 19:01:30 19:04:54 53° 259° (W) 19:08:16 435.3500 MHz FM
JAS-2 29 Jul 19:10:38 19:16:18 23° 257° (WSW) 19:22:03 435.800 - 435.900 CW/SSB, 435.910 FM
ISS 29 Jul 19:42:44 19:45:55 45° 125° (SE) 19:49:06 145.800 FM
HO-68 29 Jul 19:44:50 19:50:14 23° 75° (ENE) 19:55:35 435.675 MHz FM
MaSat-1 29 Jul 19:57:29 19:59:48 19° 291° (WNW) 20:02:22 437.345 MHz
UKube-1 29 Jul 21:09:56 21:14:16 64° 258° (WSW) 21:18:35 145.840 MHz, 145.915 MHz
HO-68 29 Jul 21:31:03 21:37:36 39° 255° (WSW) 21:44:09 435.675 MHz FM
PCSat 29 Jul 21:52:00 21:56:28 26° 110° (ESE) 22:00:55 145.825 MHz
Oscar 11 29 Jul 21:54:55 21:58:50 34° 258° (WSW) 22:02:44 145.825 FM, Beacon 2401.500 USB
PANSAT 29 Jul 22:00:03 22:02:38 17° 152° (SSE) 22:05:13 not established
RS-15 29 Jul 22:02:21 22:11:29 28° 69° (ENE) 22:20:51 29.354 - 29.394 USB, Beacon 29.352 USB
FUNcube-1 29 Jul 22:17:37 22:22:04 61° 258° (WSW) 22:26:23 145.950 - 145.970 MHz USB
SO-50 29 Jul 22:22:04 22:26:53 70° 248° (WSW) 22:31:42 436.795 FM
Sapphire 29 Jul 23:01:03 23:06:18 53° 289° (WNW) 23:11:32 437.095 MHz 1200 baud AX-25 AFSK
PCSat 29 Jul 23:35:44 23:39:36 20° 290° (WNW) 23:43:29 145.825 MHz
PANSAT 29 Jul 23:38:57 23:42:49 70° 330° (NNW) 23:46:40 not established
RS-15 30 Jul 00:12:24 00:23:24 53° 249° (WSW) 00:34:59 29.354 - 29.394 USB, Beacon 29.352 USB
Oscar 16 30 Jul 00:18:59 00:22:25 18° 103° (ESE) 00:25:51 437.025 USB, Beacon 2401.1428
UOSAT-12 30 Jul 00:19:31 00:24:04 61° 248° (WSW) 00:28:32 437.025 FM, 437.400 FM
ITAMSAT 1 30 Jul 00:43:29 00:44:50 11° 103° (ESE) 00:46:10 435.822 SSB
Uribyol 2 30 Jul 01:00:12 01:04:02 21° 103° (ESE) 01:07:52 436.500 FM
AO-27 30 Jul 01:00:29 01:04:13 20° 103° (ESE) 01:07:56 436.795 MHz FM
PANSAT 30 Jul 01:21:53 01:23:03 11° 333° (NNW) 01:24:14 not established
Oscar 19 30 Jul 01:27:52 01:33:00 67° 282° (WNW) 01:38:10 437.125 CW, 437.150 USB
Gurwin Techsat 1B 30 Jul 01:28:27 01:30:57 13° 103° (ESE) 01:33:27 435.225 FM
AO-Echo 30 Jul 01:38:34 01:43:20 62° 102° (ESE) 01:47:59 ?
Oscar 16 30 Jul 01:57:08 02:01:29 28° 282° (WNW) 02:05:52 437.025 USB, Beacon 2401.1428
